Location: Taupo
(38.6830°S, 176.0830°E)
Time: 23:04:24
(UTC+12:00)

Cosmos 2237 Rocket - Pass Details

Date: 24 January 2019
Orbit: 834 x 850 km, 71.0° (Epoch: 20 April)

Event Time Altitude Azimuth Distance (km) Brightness Sun altitude
Exits shadow 23:52:13 33° 113° (ESE) 1,397 3.2 -27.9°
Drops below altitude 10° 23:55:52 10° 143° (SE) 2,491 4.9 -28.2°
Sets 23:58:26 0° 149° (SSE) 3,430 5.8 -28.4°
